Lid_Strength_Index
1 -0 -1 -1 -1 -1 -1 -1 -1 -2 -1 -1 -1 -1 -2 -1 -2 -2 -2 -2 -2 -2 -2 -2 -2 -2 -2 -2 -2 -2 -2 -2 -2 -2 -2 -2 -2 -2 -2 -2 -2 -1 -2
0 -0 -0 -1 -1 -1 -2 -1 -2 -2 -2 -1 -1 -1 -1 -1 -2 -2 -2 -2 -2 -2 -2 -2 -2 -2 -2 -2 -2 -2 -2 -2 -2 -2 -2 -2 -2 -2 -2 -2 -2 -1 -2
0 -0 -0 -1 -1 -1 -1 -1 -1 -2 -2 -2 -1 -1 -1 -2 -2 -2 -2 -2 -2 -2 -2 -2 -2 -2 -2 -2 -2 -2 -2 -2 -2 -2 -2 1 0 -2 -2 -2 -2 -2 -2
-0 -0 -0 -0 -1 -1 -1 -1 -2 -2 -2 -2 -2 -1 -2 -2 -2 -2 -2 -2 -2 -2 -2 -2 -2 -2 -2 -2 -2 -2 -2 -2 -2 -1 1 1 -0 -2 -2 -1 -1 -1 -1
0 -0 -0 -0 -1 -1 -1 -1 -2 -2 -2 -2 -2 -2 -2 -2 -2 -2 -2 -2 -2 -2 -2 -2 -2 -2 -2 -2 -2 -2 -2 -2 -1 0 1 1 1 -1 -1 -1 -1 -1 -1
0 -0 -0 -0 -1 -1 -1 -2 -1 -2 -2 -1 -2 -2 -2 -1 -2 -2 -2 -2 -2 -2 -2 -2 -2 -2 -2 -2 -2 -2 -2 -2 -0 2 1 0 2 -0 -0 -0 -0 -0 -0
0 -0 -0 -0 -1 -1 -1 -1 -1 -1 -2 -2 -2 -2 -2 -2 -2 -2 -2 -2 -2 -2 -2 -2 -2 -2 -2 -1 -1 -1 -1 -1 1 2 2 2 1 -1 -1 -1 -0 -0 -1
0 -0 -0 1 0 -1 -1 -1 -1 -1 -1 -1 -2 -2 -2 -2 -2 -2 -2 -2 -2 -2 -2 -2 -2 -1 -1 -1 -1 -1 -1 0 2 4 4 3 -0 -1 -1 -1 -1 -1 -1
0 0 -0 -0 0 1 0 -0 -1 -1 -1 -1 -1 -1 -1 -1 -2 -2 -2 -2 -2 -2 -2 -2 -2 -1 -0 -0 -0 -0 -1 2 5 4 3 2 -1 -0 -0 -0 -1 -1 -1
0 -0 -0 -0 -0 -0 0 1 1 0 -0 -0 -0 0 0 0 -1 -1 -1 -2 -2 -2 -2 -2 -1 -1 -1 -1 -0 -0 1 2 5 4 3 3 -1 -1 -1 -1 -1 -1 -1
1 0 -0 -0 -0 0 0 1 1 1 1 1 1 2 2 1 1 0 -0 -1 -2 -2 -2 -2 -1 -1 0 1 -0 0 2 4 4 4 3 0 -1 -1 -1 -1 -1 -1 -1
2 2 1 0 0 0 -0 1 -0 0 0 1 1 2 2 2 1 0 1 -0 -1 -1 -2 -1 0 1 2 3 3 2 3 4 4 4 3 -0 -1 -1 -1 -1 -1 -1 -1
2 1 1 0 -0 0 -0 1 1 1 1 2 2 2 2 2 2 2 2 1 1 2 2 2 3 4 4 4 4 4 3 3 4 4 2 0 -1 -1 -1 -1 -1 -1 -1
2 1 1 1 0 -0 -0 0 1 2 2 2 3 2 2 2 3 3 3 4 4 4 5 4 4 4 4 4 3 3 3 4 3 3 3 2 -0 -1 -2 -1 -1 -1 -1
2 2 1 0 1 0 1 0 1 2 2 3 2 2 2 2 3 3 4 4 4 4 5 4 4 4 4 4 3 3 3 3 3 3 3 3 0 -2 -2 -2 -2 -1 -1
2 2 1 0 1 0 1 1 1 2 2 1 1 2 2 2 2 3 3 4 4 5 4 3 3 4 4 3 3 3 3 3 3 2 2 1 0 -1 -1 -2 -2 -1 -1
2 1 1 1 1 1 1 1 2 1 1 1 1 1 1 2 3 3 3 3 4 4 3 3 4 4 4 3 4 3 2 2 2 1 1 2 1 1 -0 -2 -2 -1 -1
2 2 1 1 1 1 1 2 1 1 1 1 1 1 1 1 2 2 2 3 3 3 3 3 2 2 2 3 4 4 4 4 3 2 2 2 2 2 1 1 -1 -2 -1
1 1 1 1 1 1 1 1 1 0 1 2 1 1 1 2 2 2 2 2 2 3 3 2 1 1 2 3 4 4 4 4 3 3 3 2 3 3 2 3 3 2 -1
2 2 1 1 1 1 0 1 0 0 1 2 2 1 1 1 1 1 2 1 2 1 1 1 1 1 2 3 3 3 3 4 4 3 2 2 3 3 4 4 4 5 2
2 2 2 1 1 1 1 1 1 2 2 2 2 1 1 1 1 1 1 1 1 1 1 1 1 2 2 2 3 3 3 4 4 2 3 3 4 4 6 7 7 7 7
3 2 2 1 1 1 1 1 1 1 1 1 1 1 0 1 1 1 1 0 1 1 1 1 2 2 2 1 3 4 6 5 4 3 4 5 6 7 8 8 9 9 9
8 8 4 2 1 1 1 2 2 1 1 1 1 1 0 0 0 0 -0 0 0 1 1 1 1 2 3 2 2 4 7 7 5 4 6 7 8 9 10 10 10 10 10
10 8 8 8 1 1 1 1 2 2 3 2 1 1 0 0 0 0 0 0 0 1 1 1 1 2 2 3 2 2 3 3 5 6 7 9 9 10 11 11 12 12 11
10 9 9 9 8 2 1 1 2 2 2 1 1 1 1 0 0 0 0 -0 1 1 1 1 2 2 2 2 3 3 3 3 2 4 7 10 10 11 12 12 12 12 13
11 10 9 10 11 8 4 1 1 2 2 2 2 2 2 1 0 0 1 1 1 1 1 2 2 2 2 2 2 2 2 3 4 4 4 9 10 13 12 12 13 13 14